Location: Bratislava
(48.1500°N, 17.1170°E)
Time: 16:51:11
(UTC+02:00)

ISS - Pass Details

Date: 27 March 2019
Orbit: 408 x 410 km, 51.6° (Epoch: 25 April)

Event Time Altitude Azimuth Distance (km) Brightness Sun altitude
Rises 20:09:07 0° 274° (W) 2,335 1.2 -19.2°
Reaches altitude 10° 20:11:16 10° 281° (WNW) 1,474 0.1 -19.5°
Maximum altitude 20:14:27 44° 356° (N) 579 -2.9 -19.9°
Enters shadow 20:14:59 40° 25° (NNE) 622 -2.9 -20.0°
